This is the latest recevied weather packets stored in our database for station/object KB1RMA-13. If no packets are shown the sender has not sent any weather packets the latest 10 day(s).
| Time | Temp. | Humidity | Pressure | Rain* | Wind** | Luminosity | Snow |
|---|---|---|---|---|---|---|---|
| 1777031935 | 5.56° C | 64% | 1011.9 hPa | 0 mm | - | 281 W/m² | - |
| 1777031631 | 5.56° C | 63% | 1011.8 hPa | 0 mm | - | 261 W/m² | - |
| 1777031325 | 5.56° C | 65% | 1012.2 hPa | 0 mm | - | 249 W/m² | - |
| 1777031021 | 5° C | 64% | 1011.8 hPa | 0 mm | - | 204 W/m² | - |
| 1777030718 | 5° C | 65% | 1012.1 hPa | 0 mm | - | 199 W/m² | - |
| 1777030412 | 5° C | 66% | 1011.7 hPa | 0 mm | - | 199 W/m² | - |
| 1777030109 | 5° C | 67% | 1011.8 hPa | 0 mm | - | 180 W/m² | - |
| 1777029805 | 5° C | 70% | 1011.7 hPa | 0 mm | - | 162 W/m² | - |
| 1777029502 | 4.44° C | 71% | 1011.6 hPa | 0 mm | - | 148 W/m² | - |
| 1777029200 | 4.44° C | 73% | 1011.6 hPa | 0 mm | - | 133 W/m² | - |
| 1777028896 | 4.44° C | 74% | 1011.6 hPa | 0 mm | - | 114 W/m² | - |
| 1777028594 | 4.44° C | 76% | 1011.5 hPa | 0 mm | - | 97 W/m² | - |
| 1777028290 | 3.89° C | 77% | 1011.4 hPa | 0 mm | - | 82 W/m² | - |
| 1777027985 | 3.89° C | 79% | 1011.3 hPa | 0 mm | - | 73 W/m² | - |
| 1777027681 | 3.89° C | 80% | 1011.4 hPa | 0 mm | - | 70 W/m² | - |
| 1777027376 | 3.33° C | 82% | 1011.3 hPa | 0 mm | - | 61 W/m² | - |
| 1777027074 | 3.33° C | 86% | 1011.2 hPa | 0 mm | - | 53 W/m² | - |
| 1777026770 | 2.78° C | 89% | 1011.5 hPa | 0 mm | - | 46 W/m² | - |
| 1777026465 | 1.67° C | 92% | 1011.4 hPa | 0 mm | - | 40 W/m² | - |
| 1777026162 | 1.11° C | 93% | 1011 hPa | 0 mm | - | 33 W/m² | - |
| 1777025861 | 0.56° C | 94% | 1011 hPa | 0 mm | - | 28 W/m² | - |
| 1777025555 | 0° C | 93% | 1011.1 hPa | 0 mm | - | 22 W/m² | - |
| 1777025253 | 0° C | 93% | 1010.8 hPa | 0 mm | - | 17 W/m² | - |
| 1777024952 | -0.56° C | 93% | 1010.8 hPa | 0 mm | - | 12 W/m² | - |
| 1777024647 | 0° C | 92% | 1010.8 hPa | 0 mm | - | 8 W/m² | - |
* Rain latest hour (hover to see other rain measurements)
** Current wind speed in m/s (hover to see current wind gust speed)